[[{"header":{"parameterUnit":"m.s-1","parameterCategory":1,"la1":30.2991,"la2":30.254,"lo1":-89.0895,"lo2":-89.0444,"dy":0.0017,"dx":0.0017,"nx":28,"ny":28,"refTime":"2024-05-19T03:00:00:Z","depth":0,"parameterNumber":2,"parameterNumberName":"U-component_of_WINDS"},"data":[0,0,0,0,0,0,0,0,0,0,0,0,0,0,0,0,0,0,0,0,0,0,0,0,0,0,0,0,0,0,0,0,0,0,0,0,0,0,0,0,0,0,0,0,0,0,0,0,0,0,0,0,0,0,0,0,0,0,-1.005,-1.005,0,-0.9974,-0.9973,-0.9972,-0.9903,-0.9902,-0.9901,-0.9901,-0.9824,-0.9823,-0.9822,0,0,0,0,0,0,0,0,0,0,0,0,0,-1.0139,-1.0138,-1.005,-1.0049,-1.0048,-0.9974,-0.9973,-0.9972,-0.9903,-0.9902,-0.9901,-0.99,-0.9825,-0.9823,-0.9822,0,0,0,0,0,0,0,0,0,0,0,0,0,-1.0086,-1.0138,-1.0051,-1.0005,-1.0,-0.9974,-0.9973,-0.9972,-0.9903,-0.9902,-0.9901,-0.99,-0.9825,-0.9823,-0.9822,-0.9835,0,0,-0.9816,-0.9815,0,0,0,0,0,0,0,0,-1.0089,-1.0083,-1.0013,-1.0008,-1.0003,-0.9947,-0.9976,-0.9926,-0.9904,-0.994,-0.99,-0.9899,-0.9866,-0.9861,-0.9849,-0.9832,-0.9828,-0.9816,-0.9815,-0.9814,-0.9813,0,0,0,0,0,0,0,-1.0093,-1.0086,-1.002,-1.0012,-1.0006,-0.9989,-0.998,-0.9967,-0.9911,-0.9937,-0.9932,-0.9924,-0.9863,-0.9851,-0.9847,-0.9827,-0.9816,-0.9814,-0.9813,-0.9812,-0.9818,-0.9819,0,0,0,0,0,0,-1.0103,-1.0089,-1.0023,-1.0018,-1.0044,-0.9989,-0.9979,-0.9966,-0.9911,-0.9902,-0.9925,-0.9921,-0.9855,-0.9849,-0.9844,-0.9857,-0.9814,-0.9812,-0.9811,-0.9817,-0.9818,-0.982,0,0,0,0,0,0,-1.0105,-1.0098,-1.0026,-1.0052,-1.0042,-0.9989,-0.9975,-0.9965,-0.9953,-0.9902,-0.9892,-0.9922,-0.9854,-0.9847,-0.9838,-0.9853,-0.9811,-0.981,-0.9815,-0.9817,-0.9819,-0.9882,0,0,0,0,0,0,-1.0108,-1.0099,-1.0103,-1.0053,-1.004,-1.002,-0.9976,-0.9965,-0.995,-0.9944,-0.9897,-0.9888,-0.9852,-0.9841,-0.9836,-0.985,-0.9808,-0.9814,-0.9816,-0.9818,-0.9878,-0.9886,-0.9892,0,0,0,0,0,-1.0111,-1.0124,-1.0103,-1.0096,-1.0044,-1.0021,-1.0014,-0.9972,-0.9951,-0.9955,-0.9923,-0.989,-0.9853,-0.9841,-0.9835,-0.9848,-0.9813,-0.9815,-0.9818,-0.9875,-0.9884,-0.9892,0,0,0,0,0,0,-1.0177,-1.0116,-1.0093,-1.0089,-1.0061,-1.0009,-1.0013,-0.9983,-0.996,-0.9956,-0.9905,-0.9895,-0.9892,-0.9869,-0.9857,-0.9859,-0.9828,-0.983,-0.9873,-0.9882,-0.9889,-0.9894,-0.9806,0,0,0,0,0,-1.0191,-1.0177,-1.0125,-1.0126,-1.0113,-1.0066,-1.0054,-1.0024,-0.9993,-0.9981,-0.9948,-0.992,-0.9901,-0.989,-0.9871,-0.9875,-0.9864,-0.9881,-0.9888,-0.9894,-0.9896,-0.9897,-0.9904,-0.9829,-0.9829,-0.9829,0,0,-1.022,-1.0185,-1.0179,-1.0139,-1.0113,-1.01,-1.0056,-1.0044,-1.0034,-0.9979,-0.9969,-0.9944,-0.9909,-0.9907,-0.9904,-0.9888,-0.9915,-0.9898,-0.9903,-0.9901,-0.9901,-0.9908,-0.9914,-0.9831,-0.9831,-0.983,0,0,-1.0265,-1.0237,-1.0236,-1.0211,-1.0173,-1.0142,-1.0142,-1.0095,-1.0076,-1.0065,-1.0024,-1.0012,-0.9982,-0.9959,-0.9944,-0.9983,-0.9952,-0.9979,-1.0014,-1.0016,-1.0022,-1.0027,-1.0041,-1.0047,-0.9981,-0.9981,-0.9981,0,-1.0306,-1.0284,-1.0239,-1.0229,-1.0213,-1.0163,-1.0162,-1.0141,-1.0099,-1.009,-1.0072,-1.0033,-1.0007,-0.9999,-1.0009,-0.9998,-0.9997,-0.9983,-1.0025,-1.0029,-1.0033,-1.0046,-1.0051,-0.9984,-0.9984,-0.9984,-0.9983,0,-1.0336,-1.0321,-1.0325,-1.0285,-1.027,-1.0265,-1.022,-1.021,-1.0183,-1.0154,-1.0144,-1.011,-1.0083,-1.0079,-1.0052,-1.0068,-1.0059,-1.0034,-1.0002,-1.0044,-1.0056,-1.006,-0.9989,-0.9988,-0.9987,-0.9986,0,0,-1.0418,-1.0355,-1.0357,-1.0338,-1.0294,-1.0282,-1.0276,-1.0249,-1.0242,-1.0216,-1.0209,-1.0186,-1.0163,-1.0145,-1.0116,-1.0117,-1.0151,-1.0092,-1.009,-1.0104,-1.0167,-1.0186,-1.0192,-1.0131,-1.0132,-1.0133,-1.017,0,-1.0456,-1.0439,-1.04,-1.0396,-1.0383,-1.0337,-1.0331,-1.0304,-1.0277,-1.0263,-1.0234,-1.0218,-1.0189,-1.0178,-1.0178,-1.0147,-1.0163,-1.0144,-1.0125,-1.0125,-1.0134,-1.0198,-1.0217,-1.0254,-1.0174,-1.0175,-1.0175,0,-1.0496,-1.0473,-1.0468,-1.0425,-1.0418,-1.0413,-1.0386,-1.0373,-1.0342,-1.0323,-1.0305,-1.0272,-1.0264,-1.0236,-1.0224,-1.0212,-1.0203,-1.0187,-1.0187,-1.0183,-1.0152,-1.0195,-1.0265,-1.027,-1.0182,-1.0181,-1.0181,0,-1.0557,-1.0524,-1.0516,-1.0502,-1.0452,-1.045,-1.043,-1.0397,-1.0385,-1.0362,-1.0353,-1.033,-1.0317,-1.0301,-1.0264,-1.0247,-1.0257,-1.0225,-1.0241,-1.0242,-1.0244,-1.0244,-1.0313,-1.024,-1.024,-1.024,-1.024,0,-1.0602,-1.0601,-1.0543,-1.0538,-1.0536,-1.0492,-1.0491,-1.0467,-1.0439,-1.043,-1.0389,-1.0381,-1.0333,-1.032,-1.0292,-1.0287,-1.0282,-1.0266,-1.0259,-1.0269,-1.0271,-1.0261,-1.0258,-1.0241,-1.0241,-1.0241,-1.024,0,-1.0668,-1.0629,-1.0618,-1.0572,-1.0561,-1.0561,-1.0522,-1.0517,-1.0489,-1.0478,-1.0473,-1.0429,-1.0412,-1.0374,-1.0347,-1.0328,-1.033,-1.0317,-1.0341,-1.0335,-1.0353,-1.0352,-1.0417,-1.0423,-1.0348,-1.0348,-1.0349,0,-1.0699,-1.0697,-1.0651,-1.0641,-1.0622,-1.0608,-1.0594,-1.0552,-1.0539,-1.0505,-1.0504,-1.0484,-1.0466,-1.0442,-1.0408,-1.0388,-1.0373,-1.0397,-1.037,-1.0381,-1.0373,-1.0373,-1.0373,-1.0403,-1.0404,-1.0405,-1.0406,0,-1.0758,-1.0739,-1.072,-1.0696,-1.0681,-1.066,-1.0637,-1.0632,-1.0584,-1.0573,-1.0555,-1.0541,-1.0514,-1.0495,-1.047,-1.045,-1.042,-1.0415,-1.0417,-1.0428,-1.0442,-1.0434,-1.0356,-1.0413,-1.0412,-1.0412,-1.0411,-1.0411,-1.0806,-1.0802,-1.077,-1.0751,-1.0729,-1.0709,-1.0702,-1.0673,-1.0657,-1.0631,-1.0608,-1.0593,-1.0564,-1.0527,-1.0509,-1.0497,-1.0482,-1.0486,-1.0487,-1.0488,-1.0493,-1.0445,-1.0493,-1.0493,-1.0492,-1.0492,-1.0492,0,-1.0862,-1.0839,-1.0823,-1.0792,-1.0778,-1.0751,-1.0725,-1.0715,-1.0702,-1.0677,-1.066,-1.064,-1.0622,-1.0588,-1.0567,-1.0565,-1.0551,-1.0561,-1.056,-1.0556,-1.0508,-1.0507,-1.0572,-1.0572,-1.0572,-1.0572,-1.0572,-1.0572,-1.089,-1.0882,-1.086,-1.0842,-1.0819,-1.0803,-1.079,-1.0772,-1.0752,-1.0732,-1.0716,-1.0694,-1.0666,-1.0643,-1.0626,-1.0617,-1.0611,-1.0625,-1.0612,-1.0567,-1.0559,-1.0552,-1.0551,-1.0624,-1.0625,-1.066,-1.0661,-1.0661]},{"header":{"parameterUnit":"m.s-1","parameterCategory":1,"la1":30.2991,"la2":30.254,"lo1":-89.0895,"lo2":-89.0444,"dy":0.0017,"dx":0.0017,"nx":28,"ny":28,"refTime":"2024-05-19T03:00:00:Z","depth":0,"parameterNumber":3,"parameterNumberName":"V-component_of_WINDS"},"data":[0,0,0,0,0,0,0,0,0,0,0,0,0,0,0,0,0,0,0,0,0,0,0,0,0,0,0,0,0,0,0,0,0,0,0,0,0,0,0,0,0,0,0,0,0,0,0,0,0,0,0,0,0,0,0,0,0,0,2.2843,2.2844,0,2.2889,2.289,2.289,2.2948,2.2949,2.295,2.2951,2.2995,2.2996,2.2996,0,0,0,0,0,0,0,0,0,0,0,0,0,2.2803,2.2804,2.2843,2.2844,2.2844,2.2889,2.289,2.289,2.2948,2.2949,2.295,2.2951,2.2995,2.2996,2.2996,0,0,0,0,0,0,0,0,0,0,0,0,0,2.2832,2.2804,2.2843,2.2878,2.2882,2.2889,2.289,2.2891,2.2947,2.2949,2.295,2.2951,2.2995,2.2995,2.2996,2.2971,0,0,2.2998,2.2998,0,0,0,0,0,0,0,0,2.283,2.2833,2.2872,2.2876,2.288,2.2914,2.2892,2.2918,2.2947,2.2922,2.2951,2.2952,2.2967,2.297,2.2975,2.2974,2.2975,2.2998,2.2998,2.2998,2.2998,0,0,0,0,0,0,0,2.2828,2.2832,2.2861,2.2873,2.2877,2.2891,2.2897,2.2897,2.2936,2.2925,2.2929,2.2934,2.2969,2.2975,2.2977,2.2976,2.2998,2.2998,2.2998,2.2998,2.2957,2.2956,0,0,0,0,0,0,2.2821,2.283,2.286,2.2863,2.2858,2.2891,2.2897,2.2902,2.2937,2.2943,2.2933,2.2936,2.2973,2.2976,2.2979,2.2952,2.2998,2.2999,2.2999,2.2958,2.2957,2.2955,0,0,0,0,0,0,2.282,2.2823,2.2858,2.2847,2.2853,2.289,2.2895,2.2902,2.2908,2.2943,2.295,2.2931,2.2975,2.2978,2.2973,2.2954,2.2999,2.2999,2.296,2.2958,2.2956,2.2898,0,0,0,0,0,0,2.2819,2.2822,2.2814,2.2847,2.2853,2.2852,2.2894,2.2902,2.2909,2.2914,2.2943,2.2949,2.2976,2.2972,2.2974,2.2956,2.3,2.2962,2.2959,2.2956,2.2902,2.2895,2.2888,0,0,0,0,0,2.2817,2.2795,2.2813,2.2816,2.2843,2.285,2.2854,2.2886,2.2907,2.2898,2.2921,2.2948,2.2957,2.2971,2.2973,2.2955,2.2963,2.296,2.2957,2.2905,2.2896,2.2888,0,0,0,0,0,0,2.2757,2.28,2.282,2.2808,2.2826,2.286,2.285,2.2875,2.2886,2.289,2.2929,2.2935,2.2925,2.294,2.2956,2.2934,2.2964,2.2961,2.2924,2.2916,2.2909,2.2904,2.3,0,0,0,0,0,2.2743,2.2746,2.2783,2.2769,2.2777,2.2812,2.2816,2.284,2.2859,2.2866,2.2888,2.2905,2.2912,2.2915,2.2923,2.2905,2.2912,2.2894,2.2887,2.2881,2.2878,2.287,2.2862,2.2945,2.2945,2.2945,0,0,2.2713,2.2737,2.2736,2.2758,2.2774,2.2776,2.2817,2.2817,2.2819,2.2866,2.2862,2.2879,2.2901,2.2889,2.2886,2.2901,2.2857,2.2877,2.2872,2.2872,2.2866,2.2858,2.2851,2.2943,2.2943,2.2943,0,0,2.2659,2.2678,2.2668,2.2684,2.2708,2.2732,2.273,2.2761,2.2774,2.2772,2.2807,2.281,2.282,2.2834,2.2842,2.2795,2.2821,2.2797,2.276,2.2751,2.2745,2.2739,2.2722,2.2715,2.2794,2.2794,2.2794,0,2.2618,2.2623,2.266,2.2658,2.2666,2.271,2.2701,2.2714,2.2739,2.2743,2.2762,2.2776,2.2794,2.2786,2.2775,2.2781,2.2779,2.2793,2.2743,2.2738,2.2733,2.2717,2.271,2.2791,2.2791,2.2791,2.2792,0,2.2571,2.2574,2.2564,2.2588,2.2595,2.2589,2.2625,2.2628,2.2652,2.2673,2.267,2.2693,2.2707,2.2707,2.273,2.2703,2.2712,2.2736,2.2767,2.2721,2.2706,2.2701,2.2786,2.2787,2.2788,2.2789,0,0,2.2479,2.2525,2.252,2.2532,2.2563,2.2565,2.2562,2.2576,2.2578,2.2594,2.2592,2.2601,2.2623,2.2633,2.2657,2.265,2.2611,2.2675,2.2676,2.2661,2.2582,2.2563,2.2555,2.2629,2.2628,2.2627,2.258,0,2.2429,2.2426,2.246,2.2447,2.245,2.2493,2.249,2.2508,2.2529,2.2534,2.2557,2.2562,2.2593,2.2598,2.2594,2.2617,2.2595,2.2621,2.2626,2.2625,2.2617,2.2547,2.2527,2.2481,2.2575,2.2574,2.2573,0,2.2371,2.2385,2.2372,2.2405,2.2407,2.2404,2.242,2.2425,2.2447,2.2463,2.2474,2.2503,2.2501,2.2532,2.253,2.2547,2.2551,2.2563,2.2562,2.2562,2.2595,2.2544,2.2467,2.246,2.2565,2.2565,2.2566,0,2.2303,2.2319,2.2314,2.2323,2.2361,2.2357,2.2373,2.2396,2.2403,2.2417,2.2422,2.2435,2.2442,2.2452,2.2483,2.2503,2.2477,2.2511,2.2489,2.2488,2.248,2.248,2.2401,2.2486,2.2486,2.2486,2.2486,0,2.2243,2.2233,2.2284,2.228,2.2271,2.2311,2.23,2.232,2.2341,2.2342,2.238,2.238,2.2423,2.2427,2.2452,2.2446,2.2449,2.2461,2.2468,2.2457,2.2455,2.2459,2.2462,2.2484,2.2485,2.2485,2.2485,0,2.2164,2.2198,2.2195,2.2232,2.2241,2.2233,2.2264,2.2262,2.2286,2.2287,2.2289,2.2327,2.2334,2.2367,2.2382,2.2399,2.2384,2.2398,2.2377,2.2381,2.2357,2.2358,2.2276,2.2267,2.2359,2.2358,2.2357,0,2.2123,2.2117,2.2153,2.2157,2.2171,2.2177,2.2184,2.2224,2.223,2.2255,2.225,2.2261,2.2271,2.2281,2.2309,2.2321,2.2335,2.2306,2.2337,2.2326,2.2333,2.2332,2.2331,2.2298,2.2297,2.2296,2.2295,0,2.2046,2.2063,2.2073,2.2088,2.2096,2.211,2.2126,2.2127,2.2171,2.2176,2.2184,2.2193,2.2209,2.2219,2.2236,2.2252,2.228,2.2285,2.2281,2.2269,2.2256,2.2261,2.2357,2.2286,2.2287,2.2288,2.2288,2.2289,2.1984,2.198,2.2006,2.2015,2.2032,2.2047,2.2047,2.2072,2.208,2.2097,2.212,2.2125,2.2148,2.2174,2.2188,2.2192,2.2208,2.2202,2.22,2.2197,2.2191,2.2257,2.2196,2.2196,2.2196,2.2197,2.2197,0,2.1907,2.1926,2.1935,2.1957,2.1964,2.1993,2.2012,2.2016,2.2021,2.2041,2.2051,2.2061,2.2072,2.2101,2.2114,2.2112,2.2126,2.2114,2.2114,2.2117,2.2177,2.2179,2.2103,2.2103,2.2103,2.2103,2.2103,2.2103,2.1868,2.1864,2.1884,2.1889,2.1908,2.1915,2.1923,2.1937,2.1953,2.1963,2.1972,2.1992,2.2016,2.2031,2.2042,2.205,2.2053,2.2037,2.2049,2.2104,2.2113,2.2121,2.2123,2.2037,2.2037,2.1989,2.1988,2.1988]}]]